Location: San Martino di Castrozza
(46.2667°N, 11.8000°E)
Time: 15:32:51
(UTC+00:00)

Cosmos 1953 - Pass Details

Date: 23 April 2021
Orbit: 537 x 558 km, 82.5° (Epoch: 13 May)

Event Time Altitude Azimuth Distance (km) Brightness Sun altitude
Rises 03:21:05 0° 356° (N) 2,708 6.2 -8.9°
Reaches altitude 10° 03:23:19 10° 3° (N) 1,810 5.4 -8.5°
Maximum altitude 03:27:09 46° 77° (ENE) 736 3.6 -8.0°
Drops below altitude 10° 03:30:56 10° 151° (SSE) 1,792 5.0 -7.4°
Sets 03:33:09 0° 158° (SSE) 2,679 5.8 -7.0°
